IRIDIUM 73

Last updated on Wed Nov 29 2017 00:19:03 GMT+0000 (Coordinated Universal Time)

1 25344U 98032C 17332.42406345 .00000179 00000-0 41867-4 0 9991 2 25344 86.4410 133.5792 0001685 103.5938 256.5454 14.49079064 31337
UTC large
Height (km)
Speed (km/s)
/
Latitude / Longitude
Inclination (degrees)
Orbital Period (minutes)
Azimuth
Elevation
Range (km)
Doppler Factor

Next 0 passes for location: London (51.5072 / 0.1276)

Sorry there are no passes over London.
IRIDIUM 73